Change the Weather History Date:

Friday, March 16, 2012

  Actual Average Record
Temperature  
Mean Temperature 67 °F 53 °F  
Max Temperature 80 °F 63 °F 82 °F (1945)
Min Temperature 55 °F 43 °F 17 °F (1993)
Degree Days  
Heating Degree Days 0 12  
Month to date heating degree days 231  
Since 1 July heating degree days 2695  
Cooling Degree Days 2 0  
Month to date cooling degree days 0  
Year to date cooling degree days 0  
Growing Degree Days 17 (Base 50)    
Moisture  
Dew Point 54 °F    
Average Humidity 68    
Maximum Humidity 93    
Minimum Humidity 39    
Precipitation  
Precipitation 0.15 in 0.20 in 3.64 in (1976)
Month to date precipitation 2.99  
Year to date precipitation 12.89  
Sea Level Pressure  
Sea Level Pressure 30.21 in    
Wind  
Wind Speed 7 mph (WNW)    
Max Wind Speed 16 mph    
Max Gust Speed 26 mph    
Visibility 10 miles    
Events Rain , Thunderstorm    
T = Trace of Precipitation, MM = Missing Value Source: NWS Daily Summary

Daily Weather History Graph

Daily Weather History Graph

Search for Another Location

Airport or City:

Trip Planner

Search our weather history database for the weather conditions in past years. The results will help you decide how hot, cold, wet, or windy it might be!

Date:

Astronomy

Mar. 16, 2012 Rise Set
Actual Time 7:43 AM EDT 7:44 PM EDT
Civil Twilight 7:18 AM EDT 8:09 PM EDT
Nautical Twilight 6:49 AM EDT 8:38 PM EDT
Astronomical Twilight 6:20 AM EDT 9:07 PM EDT
Moon 3:47 AM EDT (3/16) 2:16 PM EDT (3/16)
Length of Visible Light 12h 50m
Length of Day
12h 00m
Waning Crescent, 33% of the Moon is Illuminated
Mar 16
Waning Crescent
Mar 22
New
Mar 30
First Quarter
Apr 6
Full
Apr 13
Last Quarter

Hourly Weather History & Observations

Time (EDT) Temp. Dew Point Humidity Pressure Visibility Wind Dir Wind Speed Gust Speed Precip Events Conditions
12:04 AM 64.4 °F 55.4 °F 73% 30.26 in 10.0 mi WNW 3.5 mph - N/A Thunderstorm Thunderstorm
12:53 AM 60.1 °F 55.9 °F 86% 30.29 in 10.0 mi NW 16.1 mph 26.5 mph 0.04 in Rain , Thunderstorm Light Thunderstorms and Rain
1:53 AM 60.1 °F 55.0 °F 83% 30.26 in 10.0 mi North 10.4 mph - 0.11 in Rain , Thunderstorm Light Thunderstorms and Rain
2:02 AM 60.8 °F 55.4 °F 82% 30.29 in 10.0 mi North 12.7 mph - 0.00 in Thunderstorm Thunderstorm
2:26 AM 60.8 °F 53.6 °F 77% 30.26 in 10.0 mi NE 10.4 mph - 0.00 in   Partly Cloudy
2:53 AM 60.1 °F 53.1 °F 78% 30.21 in 10.0 mi NE 6.9 mph - 0.00 in   Clear
3:53 AM 59.0 °F 54.0 °F 83% 30.19 in 10.0 mi NE 4.6 mph - N/A   Clear
4:53 AM 57.9 °F 53.1 °F 84% 30.17 in 10.0 mi Calm Calm - N/A   Clear
5:53 AM 55.9 °F 53.1 °F 90% 30.19 in 10.0 mi SSE 4.6 mph - N/A   Clear
6:53 AM 55.0 °F 53.1 °F 93% 30.21 in 10.0 mi Calm Calm - N/A   Scattered Clouds
7:53 AM 55.0 °F 53.1 °F 93% 30.23 in 10.0 mi WNW 4.6 mph - N/A   Mostly Cloudy
8:53 AM 57.0 °F 55.0 °F 93% 30.24 in 10.0 mi Calm Calm - N/A   Mostly Cloudy
9:53 AM 61.0 °F 55.0 °F 81% 30.25 in 10.0 mi NW 3.5 mph - N/A   Clear
10:53 AM 64.9 °F 55.0 °F 70% 30.26 in 10.0 mi West 3.5 mph - N/A   Clear
11:53 AM 71.1 °F 55.0 °F 57% 30.24 in 10.0 mi SW 5.8 mph - N/A   Clear
12:53 PM 75.9 °F 55.9 °F 50% 30.23 in 10.0 mi West 6.9 mph - N/A   Clear
1:53 PM 75.9 °F 55.9 °F 50% 30.21 in 10.0 mi WSW 9.2 mph - N/A   Clear
2:53 PM 78.1 °F 55.0 °F 45% 30.17 in 10.0 mi WNW 9.2 mph - N/A   Clear
3:53 PM 78.1 °F 54.0 °F 43% 30.15 in 10.0 mi West 5.8 mph - N/A   Clear
4:53 PM 79.0 °F 54.0 °F 42% 30.13 in 10.0 mi WSW 12.7 mph - N/A   Clear
5:53 PM 79.0 °F 52.0 °F 39% 30.12 in 10.0 mi WNW 8.1 mph - N/A   Partly Cloudy
6:53 PM 75.9 °F 51.1 °F 42% 30.13 in 10.0 mi WSW 9.2 mph - N/A   Clear
7:53 PM 72.0 °F 54.0 °F 53% 30.15 in 10.0 mi WNW 9.2 mph - N/A   Scattered Clouds
8:53 PM 69.1 °F 54.0 °F 58% 30.17 in 10.0 mi WNW 3.5 mph - N/A   Clear
9:53 PM 69.1 °F 55.0 °F 61% 30.19 in 10.0 mi NW 3.5 mph - N/A   Mostly Cloudy
10:53 PM 68.0 °F 55.0 °F 63% 30.19 in 10.0 mi North 4.6 mph - N/A   Mostly Cloudy
11:53 PM 64.0 °F 55.0 °F 73% 30.19 in 10.0 mi Calm Calm - N/A   Clear